Location: Newark
(12.4436°N, 0.6167°W)
Time: 10:18:14
(UTC+00:00)

Vanguard 1 - Pass Details

Date: 18 December 2019
Orbit: 650 x 3833 km, 34.2° (Epoch: 26 January)

Event Time Altitude Azimuth Distance (km) Brightness Sun altitude
Rises 08:13:50 0° 304° (NW) 7,850 14.1 24.4°
Reaches altitude 10° 08:19:45 10° 308° (NW) 6,593 13.8 25.6°
Maximum altitude 08:39:30 65° 27° (NNE) 2,615 12.6 29.5°
Drops below altitude 10° 08:50:15 10° 108° (ESE) 3,852 14.4 31.6°
Sets 08:52:44 0° 111° (ESE) 4,531 14.5 32.1°
